Regional Weather Roundup
Issued by NWS Upton, NY

Current Version | Previous Version | Graphics & Text | Print | Product List | Glossary Off
Versions: 1 2 3 4 5 6 7 8 9 10 11 12 13 14 15 16 17 18 19 20 21 22 23 24 25 26 27 28 29 30 31 32 33 34 35 36 37 38 39 40 41 42 43 44 45 46 47 48 49 50

000
ASUS41 KOKX 292104
RWROKX

REGIONAL WEATHER ROUNDUP
NATIONAL WEATHER SERVICE NEW YORK NY
500 PM EDT SAT AUG 29 2015

NOTE: "FAIR" INDICATES FEW OR NO CLOUDS BELOW 12,000 FEET WITH NO
SIGNIFICANT WEATHER AND/OR OBSTRUCTIONS TO VISIBILITY.

NYZ071-072-176-178-NJZ106-104-292200-
NEW YORK CITY METRO AREA


CITY           SKY/WX    TMP DP  RH WIND       PRES   REMARKS
CENTRAL PARK   FAIR      83  58  42 S6        30.13F
LAGUARDIA APRT FAIR      82  58  43 S15       30.10F
KENNEDY INTL   PTSUNNY   81  60  48 S14       30.13F
NEWARK/LIBERTY FAIR      83  60  45 S13G18    30.10F
BRNX BOT. GARD   N/A     82  59  44 S10       30.12R
TETERBORO      FAIR      84  56  38 S9        30.09F
$$

NYZ177-179-078>081-292200-
LONG ISLAND NEW YORK

CITY           SKY/WX    TMP DP  RH WIND       PRES   REMARKS
FARMINGDALE    FAIR      81  60  48 S12       30.12F
ISLIP          PTSUNNY   80  59  48 S12       30.11F
SHIRLEY        FAIR      80  60  50 S10       30.13F
WESTHAMPTON    FAIR      80  57  45 SW9       30.14F
MONTAUK POINT    N/A     78  64  61 S9        30.14F
$$

NYZ052-065-067-292200-
HUDSON VALLEY

CITY           SKY/WX    TMP DP  RH WIND       PRES   REMARKS
WHITE PLAINS   FAIR      82  56  40 SE3       30.11F
NEWBURGH       MOSUNNY   81  61  50 VRB5      30.12F
MONTGOMERY     PTSUNNY   83  59  44 SW6       30.10F
POUGHKEEPSIE   FAIR      84  56  38 SW7       30.09F
ALBANY         PTSUNNY   79  58  48 S5        30.09F
$$

NJZ001-105-106-008-010-013-015-019>022-104-292200-
NEW JERSEY

CITY           SKY/WX    TMP DP  RH WIND       PRES   REMARKS
NEWARK/LIBERTY FAIR      83  60  45 S13G18    30.10F
TETERBORO      FAIR      84  56  38 S9        30.09F
CALDWELL       FAIR      84  56  38 CALM      30.10F
MORRISTOWN     PTSUNNY   86  59  39 S12       30.10F
SOMERVILLE     FAIR      85  58  39 VRB3      30.08F
SUSSEX         NOT AVBL
ANDOVER          N/A     80  61  52 SW6       30.12F
TRENTON        FAIR      84  60  44 SW5       30.10F
MILLVILLE      FAIR      82  62  50 S6        30.14F
ATLANTIC CITY  FAIR      81  58  45 S14       30.13F
WRIGHTSTOWN    FAIR      85  61  43 S5        30.08F
TOMS RIVER     FAIR      81  61  50 S14       30.13S
BELMAR         FAIR      79  59  50 S10G18    30.13F
$$

PAZ047>061-062-071-292200-
EASTERN PENNSYLVANIA

CITY           SKY/WX    TMP DP  RH WIND       PRES   REMARKS
PHILADELPHIA   FAIR      87  60  40 SW12      30.12F
ALLENTOWN      FAIR      82  62  50 SW9       30.11F
SCRANTON       PTSUNNY   81  61  50 S6        30.11F
$$

CTZ002-004>006-009-010-012-RIZ004-006-007-MAZ004-011-015-292200-
SOUTHERN NEW ENGLAND
 IN CT

CITY           SKY/WX    TMP DP  RH WIND       PRES   REMARKS
BRADLEY INTL   PTSUNNY   82  55  39 VRB5      30.10F
HARTFORD       FAIR      83  55  38 NW7       30.09F
DANBURY        FAIR      80  55  42 SW8       30.13F
WTRBRY/OXFORD  MOSUNNY   79  57  47 NW6       30.15S
BRIDGEPORT     FAIR      82  55  39 S7        30.11F
MERIDEN        FAIR      82  54  37 SW7       30.11S
NEW HAVEN      PTSUNNY   80  58  46 SW8       30.12S
CHESTER        NOT AVBL
GROTON         FAIR      78  61  55 SW9       30.11F
WILLIMANTIC    FAIR      82  55  39 NW5       30.10F

 IN RI

CITY           SKY/WX    TMP DP  RH WIND       PRES   REMARKS
PROVIDENCE     PTSUNNY   82  54  37 VRB5      30.10F
BLOCK ISLAND   FAIR      75  63  64 SW14      30.14S
WESTERLY       FAIR      80  54  40 SW8       30.12F

 IN MA

CITY           SKY/WX    TMP DP  RH WIND       PRES   REMARKS
BOSTON         PTSUNNY   80  53  39 W12       30.08F
WORCESTER      FAIR      74  55  51 W6        30.13F
WESTFIELD      FAIR      80  55  42 NW9       30.10F
PROVINCETOWN   FAIR      75  55  50 SW16      30.10F
NANTUCKET      FAIR      75  66  73 S12       30.14F
$$

ANZ330-335-338-340-345-350-353-355-292200-
COASTAL MARINE OBSERVATIONS


STATION/POSITION TIME  SKY/WX   TEMP    WIND        PRES    VSBY  WAVE
                                AIR SEA DIR/SP/G                  HT/PER
                 (UTC)          (F)     (DEG/KT/KT) (MB)    (MI)  (FT/S)
NY HARB ENTRANCE 1950            76 77  170/ 10/ 12 1020.4          3/11
4S FIRE IS       NOT AVBL
20S FIRE ISLAND  1950            76 77  190/  6/  8 1020.8          3/11
GREAT SOUTH BAY  2030            75 79  210/ 12/ 14   N/A
23SW MTP         2050            74 74  220/ 10/ 10 1020.3          2/11
HUDSON CANYON    NOT AVBL
KINGS POINT      NOT AVBL
EXECUTION ROCKS  2000            80     180/  4/  8   N/A
CENTRAL LI SOUND NOT AVBL
EASTERN LI SOUND 2000            74 71  260/  8/ 10   N/A
ROBBINS REEF     NOT AVBL
$$


>>>>>>>>>>>>>>>>>>>>>>>>>>>> KEY <<<<<<<<<<<<<<<<<<<<<<<<<<<
>                                                          <
>     SKY/WX - SKY CONDITION/PRESENT WEATHER               <
>     TMP    - TEMPERATURE IN FAHRENHEIT                   <
>     DP     - DEWPOINT IN FAHRENHEIT                      <
>     RH     - RELATIVE HUMIDITY IN PERCENT                <
>     WIND   - DIRECTION AND SPEED IN MPH                  <
>     PRES   - MEAN SEA LEVEL PRESSURE IN INCHES OF HG     <
>     WCI    - WIND CHILL INDEX                            <
>     VSB    - VISIBILITY IN MILES                         <
>     HX     - HEAT INDEX                                  <
>     TC     - TEMPERATURE IN CELSIUS                      <
>     VRB    - VARIABLE WIND DIRECTION                     <
>                                                          <
>>>>>>>>>>>>>>>>>>>>>>>>>>>> KEY <<<<<<<<<<<<<<<<<<<<<<<<<<<





USA.gov is the U.S. government's official web portal to all federal, state and local government web resources and services.